GW3985 Weather Reports


Display with metric or nautical units.
time (UTC)temp
F
wind
direction
speed
MPH
gust
MPH
rain 1hr
in
rain 24hr
in
rain mn
in
humidity
%
barometer
mb
20260507200017 68 150 1.0 3.0 0.00 0.43 0.06 31 1019.3
20260507195015 68 28 1.0 2.0 0.00 0.43 0.06 31 1019.5
20260507194015 67 287 1.0 4.0 0.00 0.44 0.06 32 1019.6
20260507193016 67 206 2.0 9.0 0.00 0.44 0.06 32 1019.6
20260507192016 66 230 2.0 5.0 0.00 0.44 0.06 34 1019.6
20260507191016 66 227 3.0 8.0 0.00 0.45 0.06 32 1019.7
20260507190017 65 240 2.0 8.0 0.00 0.45 0.06 35 1019.8
20260507185018 63 226 2.0 7.0 0.00 0.45 0.06 37 1019.8
20260507184035 63 242 3.0 8.0 0.00 0.45 0.06 37 1020.1
20260507183016 63 232 2.0 6.0 0.00 0.46 0.06 37 1020.2
20260507182016 62 266 2.0 5.0 0.00 0.46 0.06 38 1020.3
20260507181016 62 252 2.0 7.0 0.01 0.46 0.06 39 1020.2
20260507180057 60 273 2.0 4.0 0.01 0.46 0.06 41 1020.3
20260507175017 59 267 2.0 8.0 0.01 0.46 0.06 41 1020.2
20260507174034 59 135 1.0 3.0 0.02 0.46 0.06 41 1020.4
20260507173015 59 132 2.0 4.0 0.02 0.46 0.06 41 1020.6
20260507172015 59 189 1.0 7.0 0.02 0.46 0.06 42 1020.6
20260507171016 58 138 1.0 4.0 0.02 0.46 0.06 43 1020.8
20260507170016 57 130 1.0 8.0 0.02 0.46 0.06 45 1020.9
20260507165016 56 130 1.0 4.0 0.03 0.46 0.06 46 1021.1
20260507164017 55 129 1.0 3.0 0.02 0.45 0.05 46 1021.1
20260507163015 55 121 1.0 4.0 0.04 0.45 0.05 45 1021.2
20260507162035 55 278 1.0 4.0 0.03 0.44 0.04 47 1021.3
20260507161035 54 137 2.0 6.0 0.03 0.44 0.04 48 1021.4
20260507160016 53 154 1.0 5.0 0.03 0.43 0.03 48 1021.5
20260507155037 52 134 1.0 4.0 0.02 0.43 0.02 49 1021.5
20260507154016 51 134 1.0 4.0 0.02 0.43 0.02 49 1021.6
20260507153017 50 135 1.0 4.0 0.01 0.41 0.01 49 1021.6
20260507152055 49 138 1.0 4.0 0.01 0.41 0.01 50 1021.6
20260507151015 48 137 2.0 6.0 0.01 0.41 0.01 50 1021.5
20260507150016 47 131 1.0 3.0 0.00 0.40 0.00 50 1021.5
20260507145016 47 127 2.0 6.0 0.00 0.40 0.00 49 1021.5
20260507144036 46 136 2.0 7.0 0.00 0.40 0.00 51 1021.6
20260507143037 45 139 3.0 7.0 0.00 0.40 0.00 51 1021.5
20260507142018 45 136 2.0 5.0 0.00 0.40 0.00 51 1021.5
20260507141015 44 146 2.0 5.0 0.00 0.40 0.00 51 1021.6
20260507140015 44 131 2.0 8.0 0.00 0.40 0.00 50 1021.6
20260507135015 43 137 1.0 4.0 0.00 0.40 0.00 53 1021.5
20260507134016 42 139 2.0 5.0 0.00 0.40 0.00 53 1021.5
20260507133016 41 138 1.0 5.0 0.00 0.40 0.00 54 1021.5
20260507132017 40 130 1.0 4.0 0.00 0.40 0.00 55 1021.4
20260507131017 39 137 2.0 7.0 0.00 0.40 0.00 55 1021.4
20260507130035 39 132 2.0 6.0 0.00 0.40 0.00 56 1021.3
20260507125015 38 141 2.0 5.0 0.00 0.40 0.00 57 1021.2
20260507124016 37 132 1.0 2.0 0.00 0.40 0.00 58 1021.1
20260507123016 37 138 1.0 5.0 0.00 0.40 0.00 59 1020.9
20260507122056 36 136 1.0 3.0 0.00 0.40 0.00 59 1020.9
20260507121017 36 137 1.0 4.0 0.00 0.40 0.00 59 1020.8
20260507120017 36 136 1.0 3.0 0.00 0.40 0.00 60 1020.8
20260507115015 36 135 1.0 3.0 0.00 0.40 0.00 60 1020.6
20260507114015 36 136 1.0 5.0 0.00 0.40 0.00 59 1020.7
20260507113016 36 133 1.0 3.0 0.00 0.40 0.00 59 1020.7
20260507112016 36 139 1.0 2.0 0.00 0.40 0.00 59 1020.6
20260507111016 37 137 1.0 3.0 0.00 0.40 0.00 58 1020.6
20260507110017 36 136 2.0 5.0 0.00 0.40 0.00 59 1020.7
20260507105017 36 139 2.0 6.0 0.00 0.40 0.00 59 1020.7
20260507104035 36 137 2.0 4.0 0.00 0.40 0.00 60 1020.7
20260507103015 36 136 3.0 5.0 0.00 0.40 0.00 60 1020.7
20260507102015 36 134 1.0 4.0 0.00 0.40 0.00 61 1020.8
20260507101016 35 139 2.0 4.0 0.00 0.40 0.00 62 1020.9
20260507100016 35 136 2.0 5.0 0.00 0.40 0.00 63 1021.0
20260507095057 35 138 1.0 4.0 0.00 0.40 0.00 63 1021.1
20260507094017 35 139 1.0 3.0 0.00 0.40 0.00 64 1021.1
20260507093017 35 138 2.0 4.0 0.00 0.40 0.00 64 1021.1
20260507092016 35 139 1.0 4.0 0.00 0.40 0.00 65 1021.0
20260507091015 36 133 2.0 5.0 0.00 0.40 0.00 64 1021.1
20260507090016 35 138 3.0 10.0 0.00 0.40 0.00 64 1021.0
20260507085016 35 138 2.0 5.0 0.00 0.40 0.00 67 1021.1
20260507084017 35 138 2.0 4.0 0.00 0.40 0.00 67 1021.3
20260507083017 35 134 2.0 4.0 0.00 0.40 0.00 68 1021.3
20260507082015 35 138 1.0 3.0 0.00 0.40 0.00 68 1021.3
20260507081015 35 141 2.0 6.0 0.00 0.40 0.00 70 1021.2
20260507080016 35 138 2.0 5.0 0.00 0.40 0.00 71 1021.5
20260507075056 34 137 2.0 5.0 0.00 0.40 0.00 73 1021.7
20260507074017 34 141 2.0 6.0 0.00 0.40 0.00 75 1021.9
20260507073037 33 140 2.0 5.0 0.00 0.40 0.00 77 1022.0
20260507072017 33 138 2.0 6.0 0.00 0.40 0.00 78 1022.0
20260507071035 33 137 2.0 5.0 0.00 0.40 0.00 80 1021.9
20260507070036 33 137 2.0 6.0 0.00 0.40 0.00 81 1021.9
20260507065016 33 140 2.0 6.0 0.00 0.40 0.00 82 1021.9
20260507064016 33 137 1.0 4.0 0.00 0.40 0.00 82 1022.1
20260507063016 33 137 2.0 5.0 0.00 0.40 0.00 82 1021.9
20260507062017 33 136 2.0 4.0 0.00 0.40 0.00 82 1021.9
20260507061014 33 138 2.0 6.0 0.00 0.40 0.00 82 1022.0
20260507060015 33 137 2.0 4.0 0.00 0.40 0.00 83 1022.0
20260507055015 33 139 2.0 4.0 0.00 0.40 0.40 83 1022.1
20260507054016 33 140 2.0 5.0 0.00 0.40 0.40 83 1022.1
20260507053016 33 138 2.0 4.0 0.00 0.40 0.40 83 1022.0
20260507052037 33 134 2.0 4.0 0.00 0.40 0.40 83 1022.0
20260507051017 33 141 2.0 5.0 0.00 0.40 0.40 83 1021.9
20260507050014 33 140 2.0 4.0 0.00 0.40 0.40 83 1021.9
20260507045015 34 135 2.0 4.0 0.00 0.40 0.40 83 1021.9
20260507044016 34 137 3.0 7.0 0.00 0.40 0.40 83 1022.0
20260507043056 34 139 3.0 7.0 0.00 0.40 0.40 83 1022.0
20260507042016 34 139 3.0 7.0 0.00 0.40 0.40 83 1021.9
20260507041017 34 136 2.0 5.0 0.00 0.40 0.40 82 1021.9
20260507040017 34 139 3.0 7.0 0.00 0.40 0.40 82 1021.9
20260507035034 34 141 3.0 7.0 0.00 0.40 0.40 82 1021.8
20260507034035 35 139 2.0 8.0 0.00 0.40 0.40 81 1021.8
20260507033015 35 140 2.0 8.0 0.00 0.40 0.40 81 1021.7
20260507032056 35 141 2.0 7.0 0.00 0.40 0.40 81 1021.7
20260507031016 35 137 2.0 5.0 0.00 0.40 0.40 81 1021.7
20260507030016 35 140 1.0 4.0 0.00 0.40 0.40 82 1021.6
20260507025017 35 135 2.0 4.0 0.00 0.40 0.40 83 1021.5
20260507024014 35 141 1.0 4.0 0.00 0.40 0.40 83 1021.5
20260507023015 35 139 0.0 2.0 0.00 0.40 0.40 83 1021.5
20260507022016 35 132 0.0 2.0 0.01 0.40 0.40 82 1021.4
20260507021016 35 141 0.0 1.0 0.01 0.40 0.40 81 1021.5
20260507020016 36 146 0.0 1.0 0.01 0.40 0.40 79 1021.5
20260507015017 36 146 0.0 1.0 0.01 0.40 0.40 77 1021.6
20260507014017 37 137 0.0 2.0 0.02 0.40 0.40 76 1021.6
20260507013035 37 129 0.0 2.0 0.02 0.40 0.40 74 1021.6
20260507012015 38 131 1.0 2.0 0.02 0.39 0.39 73 1021.7
20260507011016 38 136 0.0 3.0 0.02 0.39 0.39 72 1021.8
20260507010036 38 136 1.0 4.0 0.02 0.39 0.39 72 1021.8
20260507005019 39 137 1.0 3.0 0.03 0.39 0.39 71 1021.8
20260507004017 39 141 1.0 2.0 0.03 0.39 0.39 70 1021.8
20260507003017 39 126 0.0 1.0 0.04 0.39 0.39 70 1021.9
20260507002035 40 136 1.0 3.0 0.05 0.38 0.38 68 1021.9
20260507001015 40 135 0.0 2.0 0.06 0.38 0.38 69 1021.9
20260507000015 40 147 1.0 4.0 0.06 0.37 0.37 69 1021.9
20260506235016 40 134 1.0 2.0 0.07 0.36 0.36 68 1021.9
20260506234016 40 136 0.0 3.0 0.07 0.35 0.35 69 1021.9
20260506233017 41 135 1.0 3.0 0.07 0.35 0.35 67 1022.0
20260506232017 40 138 0.0 2.0 0.06 0.33 0.33 67 1022.0
20260506231035 40 280 0.0 4.0 0.07 0.32 0.32 68 1022.1
20260506230015 39 140 0.0 2.0 0.06 0.31 0.31 71 1022.1
20260506225016 37 141 0.0 2.0 0.06 0.29 0.29 72 1022.2
20260506224056 37 137 1.0 3.0 0.06 0.29 0.28 72 1022.4
20260506223056 37 120 0.0 1.0 0.07 0.28 0.28 74 1022.4
20260506222016 36 134 1.0 4.0 0.08 0.28 0.27 74 1022.5
20260506221017 36 130 0.0 2.0 0.07 0.28 0.25 74 1022.6
20260506220015 36 136 1.0 2.0 0.08 0.28 0.24 76 1022.7
20260506215015 35 136 0.0 1.0 0.08 0.27 0.23 77 1022.8
20260506214035 35 143 1.0 2.0 0.09 0.27 0.22 77 1022.8
20260506213016 35 138 1.0 3.0 0.09 0.26 0.20 78 1022.9
20260506212036 36 132 1.0 3.0 0.10 0.25 0.19 78 1023.0
20260506211037 36 96 0.0 1.0 0.12 0.26 0.18 80 1023.0
20260506210017 36 96 0.0 1.0 0.13 0.25 0.17 79 1023.1
20260506205015 35 108 0.0 1.0 0.12 0.24 0.15 79 1023.1
20260506204035 36 97 0.0 2.0 0.10 0.24 0.13 79 1023.2
20260506203015 37 22 0.0 1.0 0.09 0.23 0.11 80 1023.4
20260506202016 36 310 0.0 1.0 0.06 0.22 0.09 79 1023.5
20260506201016 37 261 0.0 1.0 0.05 0.20 0.06 79 1023.5